Index of /20260503/WXO-DD/model_rdps/10km/06/045
Name Last modified Size Description
Parent Directory -
20260503T06Z_MSC_RDPS_AbsoluteVorticity_IsbL-0250_RLatLon0.09_PT045H.grib2 2026-05-03 08:57 611K
20260503T06Z_MSC_RDPS_AbsoluteVorticity_IsbL-0500_RLatLon0.09_PT045H.grib2 2026-05-03 08:57 568K
20260503T06Z_MSC_RDPS_AbsoluteVorticity_IsbL-0700_RLatLon0.09_PT045H.grib2 2026-05-03 08:57 614K
20260503T06Z_MSC_RDPS_AbsoluteVorticity_IsbL-0850_RLatLon0.09_PT045H.grib2 2026-05-03 08:57 747K
20260503T06Z_MSC_RDPS_AirTemp_AGL-120m_RLatLon0.09_PT045H.grib2 2026-05-03 08:57 368K
20260503T06Z_MSC_RDPS_AirTemp_AGL-2m_RLatLon0.09_PT045H.grib2 2026-05-03 08:57 623K
20260503T06Z_MSC_RDPS_AirTemp_AGL-40m_RLatLon0.09_PT045H.grib2 2026-05-03 08:57 396K
20260503T06Z_MSC_RDPS_AirTemp_AGL-80m_RLatLon0.09_PT045H.grib2 2026-05-03 08:57 389K
20260503T06Z_MSC_RDPS_AirTemp_IsbL-0001_RLatLon0.09_PT045H.grib2 2026-05-03 08:57 260K
20260503T06Z_MSC_RDPS_AirTemp_IsbL-0005_RLatLon0.09_PT045H.grib2 2026-05-03 08:57 292K
20260503T06Z_MSC_RDPS_AirTemp_IsbL-0010_RLatLon0.09_PT045H.grib2 2026-05-03 08:57 300K
20260503T06Z_MSC_RDPS_AirTemp_IsbL-0020_RLatLon0.09_PT045H.grib2 2026-05-03 08:57 317K
20260503T06Z_MSC_RDPS_AirTemp_IsbL-0030_RLatLon0.09_PT045H.grib2 2026-05-03 08:57 336K
20260503T06Z_MSC_RDPS_AirTemp_IsbL-0050_RLatLon0.09_PT045H.grib2 2026-05-03 08:57 317K
20260503T06Z_MSC_RDPS_AirTemp_IsbL-0100_RLatLon0.09_PT045H.grib2 2026-05-03 08:57 431K
20260503T06Z_MSC_RDPS_AirTemp_IsbL-0150_RLatLon0.09_PT045H.grib2 2026-05-03 08:57 421K
20260503T06Z_MSC_RDPS_AirTemp_IsbL-0175_RLatLon0.09_PT045H.grib2 2026-05-03 08:57 411K
20260503T06Z_MSC_RDPS_AirTemp_IsbL-0200_RLatLon0.09_PT045H.grib2 2026-05-03 08:57 414K
20260503T06Z_MSC_RDPS_AirTemp_IsbL-0225_RLatLon0.09_PT045H.grib2 2026-05-03 08:57 417K
20260503T06Z_MSC_RDPS_AirTemp_IsbL-0250_RLatLon0.09_PT045H.grib2 2026-05-03 08:57 422K
20260503T06Z_MSC_RDPS_AirTemp_IsbL-0275_RLatLon0.09_PT045H.grib2 2026-05-03 08:57 403K
20260503T06Z_MSC_RDPS_AirTemp_IsbL-0300_RLatLon0.09_PT045H.grib2 2026-05-03 08:57 409K
20260503T06Z_MSC_RDPS_AirTemp_IsbL-0350_RLatLon0.09_PT045H.grib2 2026-05-03 08:57 427K
20260503T06Z_MSC_RDPS_AirTemp_IsbL-0400_RLatLon0.09_PT045H.grib2 2026-05-03 08:57 430K
20260503T06Z_MSC_RDPS_AirTemp_IsbL-0450_RLatLon0.09_PT045H.grib2 2026-05-03 08:57 438K
20260503T06Z_MSC_RDPS_AirTemp_IsbL-0500_RLatLon0.09_PT045H.grib2 2026-05-03 08:57 450K
20260503T06Z_MSC_RDPS_AirTemp_IsbL-0550_RLatLon0.09_PT045H.grib2 2026-05-03 08:57 432K
20260503T06Z_MSC_RDPS_AirTemp_IsbL-0600_RLatLon0.09_PT045H.grib2 2026-05-03 08:57 448K
20260503T06Z_MSC_RDPS_AirTemp_IsbL-0650_RLatLon0.09_PT045H.grib2 2026-05-03 08:57 461K
20260503T06Z_MSC_RDPS_AirTemp_IsbL-0700_RLatLon0.09_PT045H.grib2 2026-05-03 08:57 377K
20260503T06Z_MSC_RDPS_AirTemp_IsbL-0750_RLatLon0.09_PT045H.grib2 2026-05-03 08:57 406K
20260503T06Z_MSC_RDPS_AirTemp_IsbL-0800_RLatLon0.09_PT045H.grib2 2026-05-03 08:57 453K
20260503T06Z_MSC_RDPS_AirTemp_IsbL-0850_RLatLon0.09_PT045H.grib2 2026-05-03 08:57 505K
20260503T06Z_MSC_RDPS_AirTemp_IsbL-0875_RLatLon0.09_PT045H.grib2 2026-05-03 08:57 522K
20260503T06Z_MSC_RDPS_AirTemp_IsbL-0900_RLatLon0.09_PT045H.grib2 2026-05-03 08:57 527K
20260503T06Z_MSC_RDPS_AirTemp_IsbL-0925_RLatLon0.09_PT045H.grib2 2026-05-03 08:57 521K
20260503T06Z_MSC_RDPS_AirTemp_IsbL-0950_RLatLon0.09_PT045H.grib2 2026-05-03 08:57 518K
20260503T06Z_MSC_RDPS_AirTemp_IsbL-0970_RLatLon0.09_PT045H.grib2 2026-05-03 08:57 508K
20260503T06Z_MSC_RDPS_AirTemp_IsbL-0985_RLatLon0.09_PT045H.grib2 2026-05-03 08:57 493K
20260503T06Z_MSC_RDPS_AirTemp_IsbL-1000_RLatLon0.09_PT045H.grib2 2026-05-03 08:57 481K
20260503T06Z_MSC_RDPS_AirTemp_IsbL-1015_RLatLon0.09_PT045H.grib2 2026-05-03 08:57 485K
20260503T06Z_MSC_RDPS_Albedo_Sfc_RLatLon0.09_PT045H.grib2 2026-05-03 08:57 159K
20260503T06Z_MSC_RDPS_CAPE_Sfc_RLatLon0.09_PT045H.grib2 2026-05-03 08:57 1.7M
20260503T06Z_MSC_RDPS_CIN_Sfc_RLatLon0.09_PT045H.grib2 2026-05-03 08:57 1.2M
20260503T06Z_MSC_RDPS_CloudWater_EAtm_RLatLon0.09_PT045H.grib2 2026-05-03 08:57 222K
20260503T06Z_MSC_RDPS_ConvectivePrecip-Accum_Sfc_RLatLon0.09_PT045H.grib2 2026-05-03 08:57 1.1M
20260503T06Z_MSC_RDPS_DewPointDepression_AGL-2m_RLatLon0.09_PT045H.grib2 2026-05-03 08:57 402K
20260503T06Z_MSC_RDPS_DewPointDepression_IsbL-0001_RLatLon0.09_PT045H.grib2 2026-05-03 08:57 193
20260503T06Z_MSC_RDPS_DewPointDepression_IsbL-0005_RLatLon0.09_PT045H.grib2 2026-05-03 08:57 193
20260503T06Z_MSC_RDPS_DewPointDepression_IsbL-0010_RLatLon0.09_PT045H.grib2 2026-05-03 08:57 193
20260503T06Z_MSC_RDPS_DewPointDepression_IsbL-0020_RLatLon0.09_PT045H.grib2 2026-05-03 08:57 193
20260503T06Z_MSC_RDPS_DewPointDepression_IsbL-0030_RLatLon0.09_PT045H.grib2 2026-05-03 08:57 193
20260503T06Z_MSC_RDPS_DewPointDepression_IsbL-0050_RLatLon0.09_PT045H.grib2 2026-05-03 08:57 78K
20260503T06Z_MSC_RDPS_DewPointDepression_IsbL-0100_RLatLon0.09_PT045H.grib2 2026-05-03 08:57 119K
20260503T06Z_MSC_RDPS_DewPointDepression_IsbL-0150_RLatLon0.09_PT045H.grib2 2026-05-03 08:57 149K
20260503T06Z_MSC_RDPS_DewPointDepression_IsbL-0175_RLatLon0.09_PT045H.grib2 2026-05-03 08:57 184K
20260503T06Z_MSC_RDPS_DewPointDepression_IsbL-0200_RLatLon0.09_PT045H.grib2 2026-05-03 08:57 223K
20260503T06Z_MSC_RDPS_DewPointDepression_IsbL-0225_RLatLon0.09_PT045H.grib2 2026-05-03 08:57 262K
20260503T06Z_MSC_RDPS_DewPointDepression_IsbL-0250_RLatLon0.09_PT045H.grib2 2026-05-03 08:57 298K
20260503T06Z_MSC_RDPS_DewPointDepression_IsbL-0275_RLatLon0.09_PT045H.grib2 2026-05-03 08:57 305K
20260503T06Z_MSC_RDPS_DewPointDepression_IsbL-0300_RLatLon0.09_PT045H.grib2 2026-05-03 08:57 322K
20260503T06Z_MSC_RDPS_DewPointDepression_IsbL-0350_RLatLon0.09_PT045H.grib2 2026-05-03 08:57 329K
20260503T06Z_MSC_RDPS_DewPointDepression_IsbL-0400_RLatLon0.09_PT045H.grib2 2026-05-03 08:57 341K
20260503T06Z_MSC_RDPS_DewPointDepression_IsbL-0450_RLatLon0.09_PT045H.grib2 2026-05-03 08:57 347K
20260503T06Z_MSC_RDPS_DewPointDepression_IsbL-0500_RLatLon0.09_PT045H.grib2 2026-05-03 08:57 354K
20260503T06Z_MSC_RDPS_DewPointDepression_IsbL-0550_RLatLon0.09_PT045H.grib2 2026-05-03 08:57 363K
20260503T06Z_MSC_RDPS_DewPointDepression_IsbL-0600_RLatLon0.09_PT045H.grib2 2026-05-03 08:57 373K
20260503T06Z_MSC_RDPS_DewPointDepression_IsbL-0650_RLatLon0.09_PT045H.grib2 2026-05-03 08:57 379K
20260503T06Z_MSC_RDPS_DewPointDepression_IsbL-0700_RLatLon0.09_PT045H.grib2 2026-05-03 08:57 391K
20260503T06Z_MSC_RDPS_DewPointDepression_IsbL-0750_RLatLon0.09_PT045H.grib2 2026-05-03 08:57 407K
20260503T06Z_MSC_RDPS_DewPointDepression_IsbL-0800_RLatLon0.09_PT045H.grib2 2026-05-03 08:57 445K
20260503T06Z_MSC_RDPS_DewPointDepression_IsbL-0850_RLatLon0.09_PT045H.grib2 2026-05-03 08:57 473K
20260503T06Z_MSC_RDPS_DewPointDepression_IsbL-0875_RLatLon0.09_PT045H.grib2 2026-05-03 08:57 472K
20260503T06Z_MSC_RDPS_DewPointDepression_IsbL-0900_RLatLon0.09_PT045H.grib2 2026-05-03 08:57 459K
20260503T06Z_MSC_RDPS_DewPointDepression_IsbL-0925_RLatLon0.09_PT045H.grib2 2026-05-03 08:57 449K
20260503T06Z_MSC_RDPS_DewPointDepression_IsbL-0950_RLatLon0.09_PT045H.grib2 2026-05-03 08:57 440K
20260503T06Z_MSC_RDPS_DewPointDepression_IsbL-0970_RLatLon0.09_PT045H.grib2 2026-05-03 08:57 433K
20260503T06Z_MSC_RDPS_DewPointDepression_IsbL-0985_RLatLon0.09_PT045H.grib2 2026-05-03 08:57 427K
20260503T06Z_MSC_RDPS_DewPointDepression_IsbL-1000_RLatLon0.09_PT045H.grib2 2026-05-03 08:57 420K
20260503T06Z_MSC_RDPS_DewPointDepression_IsbL-1015_RLatLon0.09_PT045H.grib2 2026-05-03 08:57 412K
20260503T06Z_MSC_RDPS_DewPoint_AGL-2m_RLatLon0.09_PT045H.grib2 2026-05-03 08:57 301K
20260503T06Z_MSC_RDPS_DownwardLongwaveRadiationFlux-Accum_Sfc_RLatLon0.09_PT045H.grib2 2026-05-03 08:57 365K
20260503T06Z_MSC_RDPS_DownwardShortwaveRadiationFlux-Accum_NTAtm_RLatLon0.09_PT045H.grib2 2026-05-03 08:57 127K
20260503T06Z_MSC_RDPS_DownwardShortwaveRadiationFlux-Accum_Sfc_RLatLon0.09_PT045H.grib2 2026-05-03 08:57 563K
20260503T06Z_MSC_RDPS_FreezingRain-Accum1h_Sfc_RLatLon0.09_PT045H.grib2 2026-05-03 08:57 26K
20260503T06Z_MSC_RDPS_FreezingRain-Accum3h_Sfc_RLatLon0.09_PT045H.grib2 2026-05-03 08:57 29K
20260503T06Z_MSC_RDPS_FreezingRain-Accum_Sfc_RLatLon0.09_PT045H.grib2 2026-05-03 08:57 152K
20260503T06Z_MSC_RDPS_GeopotentialHeight_IsbL-0001_RLatLon0.09_PT045H.grib2 2026-05-03 08:57 238K
20260503T06Z_MSC_RDPS_GeopotentialHeight_IsbL-0005_RLatLon0.09_PT045H.grib2 2026-05-03 08:57 336K
20260503T06Z_MSC_RDPS_GeopotentialHeight_IsbL-0010_RLatLon0.09_PT045H.grib2 2026-05-03 08:57 304K
20260503T06Z_MSC_RDPS_GeopotentialHeight_IsbL-0020_RLatLon0.09_PT045H.grib2 2026-05-03 08:57 400K
20260503T06Z_MSC_RDPS_GeopotentialHeight_IsbL-0030_RLatLon0.09_PT045H.grib2 2026-05-03 08:57 402K
20260503T06Z_MSC_RDPS_GeopotentialHeight_IsbL-0050_RLatLon0.09_PT045H.grib2 2026-05-03 08:57 309K
20260503T06Z_MSC_RDPS_GeopotentialHeight_IsbL-0100_RLatLon0.09_PT045H.grib2 2026-05-03 08:57 287K
20260503T06Z_MSC_RDPS_GeopotentialHeight_IsbL-0150_RLatLon0.09_PT045H.grib2 2026-05-03 08:57 230K
20260503T06Z_MSC_RDPS_GeopotentialHeight_IsbL-0175_RLatLon0.09_PT045H.grib2 2026-05-03 08:57 233K
20260503T06Z_MSC_RDPS_GeopotentialHeight_IsbL-0200_RLatLon0.09_PT045H.grib2 2026-05-03 08:57 235K
20260503T06Z_MSC_RDPS_GeopotentialHeight_IsbL-0225_RLatLon0.09_PT045H.grib2 2026-05-03 08:57 267K
20260503T06Z_MSC_RDPS_GeopotentialHeight_IsbL-0250_RLatLon0.09_PT045H.grib2 2026-05-03 08:57 268K
20260503T06Z_MSC_RDPS_GeopotentialHeight_IsbL-0275_RLatLon0.09_PT045H.grib2 2026-05-03 08:57 236K
20260503T06Z_MSC_RDPS_GeopotentialHeight_IsbL-0300_RLatLon0.09_PT045H.grib2 2026-05-03 08:57 236K
20260503T06Z_MSC_RDPS_GeopotentialHeight_IsbL-0350_RLatLon0.09_PT045H.grib2 2026-05-03 08:57 232K
20260503T06Z_MSC_RDPS_GeopotentialHeight_IsbL-0400_RLatLon0.09_PT045H.grib2 2026-05-03 08:57 228K
20260503T06Z_MSC_RDPS_GeopotentialHeight_IsbL-0450_RLatLon0.09_PT045H.grib2 2026-05-03 08:57 298K
20260503T06Z_MSC_RDPS_GeopotentialHeight_IsbL-0500_RLatLon0.09_PT045H.grib2 2026-05-03 08:57 294K
20260503T06Z_MSC_RDPS_GeopotentialHeight_IsbL-0550_RLatLon0.09_PT045H.grib2 2026-05-03 08:57 291K
20260503T06Z_MSC_RDPS_GeopotentialHeight_IsbL-0600_RLatLon0.09_PT045H.grib2 2026-05-03 08:57 260K
20260503T06Z_MSC_RDPS_GeopotentialHeight_IsbL-0650_RLatLon0.09_PT045H.grib2 2026-05-03 08:57 257K
20260503T06Z_MSC_RDPS_GeopotentialHeight_IsbL-0700_RLatLon0.09_PT045H.grib2 2026-05-03 08:57 256K
20260503T06Z_MSC_RDPS_GeopotentialHeight_IsbL-0750_RLatLon0.09_PT045H.grib2 2026-05-03 08:57 258K
20260503T06Z_MSC_RDPS_GeopotentialHeight_IsbL-0800_RLatLon0.09_PT045H.grib2 2026-05-03 08:57 349K
20260503T06Z_MSC_RDPS_GeopotentialHeight_IsbL-0850_RLatLon0.09_PT045H.grib2 2026-05-03 08:57 359K
20260503T06Z_MSC_RDPS_GeopotentialHeight_IsbL-0875_RLatLon0.09_PT045H.grib2 2026-05-03 08:57 275K
20260503T06Z_MSC_RDPS_GeopotentialHeight_IsbL-0900_RLatLon0.09_PT045H.grib2 2026-05-03 08:57 277K
20260503T06Z_MSC_RDPS_GeopotentialHeight_IsbL-0925_RLatLon0.09_PT045H.grib2 2026-05-03 08:57 280K
20260503T06Z_MSC_RDPS_GeopotentialHeight_IsbL-0950_RLatLon0.09_PT045H.grib2 2026-05-03 08:57 282K
20260503T06Z_MSC_RDPS_GeopotentialHeight_IsbL-0970_RLatLon0.09_PT045H.grib2 2026-05-03 08:57 285K
20260503T06Z_MSC_RDPS_GeopotentialHeight_IsbL-0985_RLatLon0.09_PT045H.grib2 2026-05-03 08:57 291K
20260503T06Z_MSC_RDPS_GeopotentialHeight_IsbL-1000_RLatLon0.09_PT045H.grib2 2026-05-03 08:57 299K
20260503T06Z_MSC_RDPS_GeopotentialHeight_IsbL-1015_RLatLon0.09_PT045H.grib2 2026-05-03 08:57 310K
20260503T06Z_MSC_RDPS_Humidex_Sfc_RLatLon0.09_PT045H.grib2 2026-05-03 08:57 2.2M
20260503T06Z_MSC_RDPS_IcePellets-Accum1h_Sfc_RLatLon0.09_PT045H.grib2 2026-05-03 08:57 9.6K
20260503T06Z_MSC_RDPS_IcePellets-Accum3h_Sfc_RLatLon0.09_PT045H.grib2 2026-05-03 08:57 11K
20260503T06Z_MSC_RDPS_IcePellets-Accum_Sfc_RLatLon0.09_PT045H.grib2 2026-05-03 08:57 21K
20260503T06Z_MSC_RDPS_KIndex_Sfc_RLatLon0.09_PT045H.grib2 2026-05-03 08:57 2.5M
20260503T06Z_MSC_RDPS_LatentHeatNetFlux_Sfc_RLatLon0.09_PT045H.grib2 2026-05-03 08:57 428K
20260503T06Z_MSC_RDPS_LiftedIndex-MU-VT_IsbL-0500_RLatLon0.09_PT045H.grib2 2026-05-03 08:57 2.4M
20260503T06Z_MSC_RDPS_NetLongwaveRadiationFlux-Accum_Sfc_RLatLon0.09_PT045H.grib2 2026-05-03 08:57 541K
20260503T06Z_MSC_RDPS_NetShortwaveRadiationFlux-Accum_Sfc_RLatLon0.09_PT045H.grib2 2026-05-03 08:57 563K
20260503T06Z_MSC_RDPS_PlanetaryBoundaryLayerHeight_Sfc_RLatLon0.09_PT045H.grib2 2026-05-03 08:57 1.2M
20260503T06Z_MSC_RDPS_Precip-Accum1h_Sfc_RLatLon0.09_PT045H.grib2 2026-05-03 08:57 1.2M
20260503T06Z_MSC_RDPS_Precip-Accum3h_Sfc_RLatLon0.09_PT045H.grib2 2026-05-03 08:57 1.4M
20260503T06Z_MSC_RDPS_Precip-Accum_Sfc_RLatLon0.09_PT045H.grib2 2026-05-03 08:57 2.1M
20260503T06Z_MSC_RDPS_PrecipRate_Sfc_RLatLon0.09_PT045H.grib2 2026-05-03 08:57 170K
20260503T06Z_MSC_RDPS_PrecipType-Instant_Sfc_RLatLon0.09_PT045H.grib2 2026-05-03 08:57 565K
20260503T06Z_MSC_RDPS_Pressure-Trend3h_Sfc_RLatLon0.09_PT045H.grib2 2026-05-03 08:57 1.2M
20260503T06Z_MSC_RDPS_Pressure_MSL_RLatLon0.09_PT045H.grib2 2026-05-03 08:57 325K
20260503T06Z_MSC_RDPS_Pressure_PVU-1.5_RLatLon0.09_PT045H.grib2 2026-05-03 08:57 2.5M
20260503T06Z_MSC_RDPS_Pressure_PVU-1_RLatLon0.09_PT045H.grib2 2026-05-03 08:57 2.4M
20260503T06Z_MSC_RDPS_Pressure_PVU-2_RLatLon0.09_PT045H.grib2 2026-05-03 08:57 2.4M
20260503T06Z_MSC_RDPS_Pressure_Sfc_RLatLon0.09_PT045H.grib2 2026-05-03 08:57 497K
20260503T06Z_MSC_RDPS_RadiativeTemp_Sfc_RLatLon0.09_PT045H.grib2 2026-05-03 08:57 303K
20260503T06Z_MSC_RDPS_Rain-Accum1h_Sfc_RLatLon0.09_PT045H.grib2 2026-05-03 08:57 597K
20260503T06Z_MSC_RDPS_Rain-Accum3h_Sfc_RLatLon0.09_PT045H.grib2 2026-05-03 08:57 726K
20260503T06Z_MSC_RDPS_Rain-Accum_Sfc_RLatLon0.09_PT045H.grib2 2026-05-03 08:57 1.7M
20260503T06Z_MSC_RDPS_RelativeHumidity_AGL-2m_RLatLon0.09_PT045H.grib2 2026-05-03 08:57 1.0M
20260503T06Z_MSC_RDPS_RelativeHumidity_IsbL-0010_RLatLon0.09_PT045H.grib2 2026-05-03 08:57 615K
20260503T06Z_MSC_RDPS_RelativeHumidity_IsbL-0020_RLatLon0.09_PT045H.grib2 2026-05-03 08:57 664K
20260503T06Z_MSC_RDPS_RelativeHumidity_IsbL-0030_RLatLon0.09_PT045H.grib2 2026-05-03 08:57 601K
20260503T06Z_MSC_RDPS_RelativeHumidity_IsbL-0050_RLatLon0.09_PT045H.grib2 2026-05-03 08:57 359K
20260503T06Z_MSC_RDPS_RelativeHumidity_IsbL-0100_RLatLon0.09_PT045H.grib2 2026-05-03 08:57 286K
20260503T06Z_MSC_RDPS_RelativeHumidity_IsbL-0150_RLatLon0.09_PT045H.grib2 2026-05-03 08:57 422K
20260503T06Z_MSC_RDPS_RelativeHumidity_IsbL-0175_RLatLon0.09_PT045H.grib2 2026-05-03 08:57 488K
20260503T06Z_MSC_RDPS_RelativeHumidity_IsbL-0200_RLatLon0.09_PT045H.grib2 2026-05-03 08:57 564K
20260503T06Z_MSC_RDPS_RelativeHumidity_IsbL-0225_RLatLon0.09_PT045H.grib2 2026-05-03 08:57 632K
20260503T06Z_MSC_RDPS_RelativeHumidity_IsbL-0250_RLatLon0.09_PT045H.grib2 2026-05-03 08:57 692K
20260503T06Z_MSC_RDPS_RelativeHumidity_IsbL-0275_RLatLon0.09_PT045H.grib2 2026-05-03 08:57 709K
20260503T06Z_MSC_RDPS_RelativeHumidity_IsbL-0300_RLatLon0.09_PT045H.grib2 2026-05-03 08:57 745K
20260503T06Z_MSC_RDPS_RelativeHumidity_IsbL-0350_RLatLon0.09_PT045H.grib2 2026-05-03 08:57 767K
20260503T06Z_MSC_RDPS_RelativeHumidity_IsbL-0400_RLatLon0.09_PT045H.grib2 2026-05-03 08:57 785K
20260503T06Z_MSC_RDPS_RelativeHumidity_IsbL-0450_RLatLon0.09_PT045H.grib2 2026-05-03 08:57 793K
20260503T06Z_MSC_RDPS_RelativeHumidity_IsbL-0500_RLatLon0.09_PT045H.grib2 2026-05-03 08:57 798K
20260503T06Z_MSC_RDPS_RelativeHumidity_IsbL-0550_RLatLon0.09_PT045H.grib2 2026-05-03 08:57 824K
20260503T06Z_MSC_RDPS_RelativeHumidity_IsbL-0600_RLatLon0.09_PT045H.grib2 2026-05-03 08:57 841K
20260503T06Z_MSC_RDPS_RelativeHumidity_IsbL-0650_RLatLon0.09_PT045H.grib2 2026-05-03 08:57 847K
20260503T06Z_MSC_RDPS_RelativeHumidity_IsbL-0700_RLatLon0.09_PT045H.grib2 2026-05-03 08:57 883K
20260503T06Z_MSC_RDPS_RelativeHumidity_IsbL-0750_RLatLon0.09_PT045H.grib2 2026-05-03 08:57 918K
20260503T06Z_MSC_RDPS_RelativeHumidity_IsbL-0800_RLatLon0.09_PT045H.grib2 2026-05-03 08:57 1.0M
20260503T06Z_MSC_RDPS_RelativeHumidity_IsbL-0850_RLatLon0.09_PT045H.grib2 2026-05-03 08:57 1.0M
20260503T06Z_MSC_RDPS_RelativeHumidity_IsbL-0875_RLatLon0.09_PT045H.grib2 2026-05-03 08:57 1.1M
20260503T06Z_MSC_RDPS_RelativeHumidity_IsbL-0900_RLatLon0.09_PT045H.grib2 2026-05-03 08:57 1.1M
20260503T06Z_MSC_RDPS_RelativeHumidity_IsbL-0925_RLatLon0.09_PT045H.grib2 2026-05-03 08:57 1.1M
20260503T06Z_MSC_RDPS_RelativeHumidity_IsbL-0950_RLatLon0.09_PT045H.grib2 2026-05-03 08:57 1.1M
20260503T06Z_MSC_RDPS_RelativeHumidity_IsbL-0970_RLatLon0.09_PT045H.grib2 2026-05-03 08:57 1.0M
20260503T06Z_MSC_RDPS_RelativeHumidity_IsbL-0985_RLatLon0.09_PT045H.grib2 2026-05-03 08:57 1.0M
20260503T06Z_MSC_RDPS_RelativeHumidity_IsbL-1000_RLatLon0.09_PT045H.grib2 2026-05-03 08:57 1.0M
20260503T06Z_MSC_RDPS_RelativeHumidity_IsbL-1015_RLatLon0.09_PT045H.grib2 2026-05-03 08:57 1.0M
20260503T06Z_MSC_RDPS_Runoff-Accum_Sfc_RLatLon0.09_PT045H.grib2 2026-05-03 08:57 51K
20260503T06Z_MSC_RDPS_SWEATIndex_Sfc_RLatLon0.09_PT045H.grib2 2026-05-03 08:57 2.4M
20260503T06Z_MSC_RDPS_SeeingIndex_EAtm_RLatLon0.09_PT045H.grib2 2026-05-03 08:57 1.0M
20260503T06Z_MSC_RDPS_SensibleHeatNetFlux_Sfc_RLatLon0.09_PT045H.grib2 2026-05-03 08:57 297K
20260503T06Z_MSC_RDPS_ShowalterIndex_IsbL-0500_RLatLon0.09_PT045H.grib2 2026-05-03 08:57 2.6M
20260503T06Z_MSC_RDPS_SkyTransparencyIndex_EAtm_RLatLon0.09_PT045H.grib2 2026-05-03 08:57 707K
20260503T06Z_MSC_RDPS_Snow-Accum1h_Sfc_RLatLon0.09_PT045H.grib2 2026-05-03 08:57 456K
20260503T06Z_MSC_RDPS_Snow-Accum3h_Sfc_RLatLon0.09_PT045H.grib2 2026-05-03 08:57 391K
20260503T06Z_MSC_RDPS_Snow-Accum_Sfc_RLatLon0.09_PT045H.grib2 2026-05-03 08:57 767K
20260503T06Z_MSC_RDPS_SnowDensity_Sfc_RLatLon0.09_PT045H.grib2 2026-05-03 08:57 172K
20260503T06Z_MSC_RDPS_SnowDepth_Sfc_RLatLon0.09_PT045H.grib2 2026-05-03 08:57 652K
20260503T06Z_MSC_RDPS_SoilTemp_DBS-0to10cm_RLatLon0.09_PT045H.grib2 2026-05-03 08:57 240K
20260503T06Z_MSC_RDPS_SoilTemp_Sfc_RLatLon0.09_PT045H.grib2 2026-05-03 08:57 264K
20260503T06Z_MSC_RDPS_SoilVolumetricIceContent_Sfc_RLatLon0.09_PT045H.grib2 2026-05-03 08:57 154K
20260503T06Z_MSC_RDPS_SoilVolumetricWaterContent_DBS-0to10cm_RLatLon0.09_PT045H.grib2 2026-05-03 08:57 276K
20260503T06Z_MSC_RDPS_SoilVolumetricWaterContent_DBS-0to1cm_RLatLon0.09_PT045H.grib2 2026-05-03 08:57 340K
20260503T06Z_MSC_RDPS_SpecificHumidity_AGL-120m_RLatLon0.09_PT045H.grib2 2026-05-03 08:57 482K
20260503T06Z_MSC_RDPS_SpecificHumidity_AGL-2m_RLatLon0.09_PT045H.grib2 2026-05-03 08:57 654K
20260503T06Z_MSC_RDPS_SpecificHumidity_AGL-40m_RLatLon0.09_PT045H.grib2 2026-05-03 08:57 488K
20260503T06Z_MSC_RDPS_SpecificHumidity_AGL-80m_RLatLon0.09_PT045H.grib2 2026-05-03 08:57 483K
20260503T06Z_MSC_RDPS_SpecificHumidity_IsbL-0001_RLatLon0.09_PT045H.grib2 2026-05-03 08:57 399K
20260503T06Z_MSC_RDPS_SpecificHumidity_IsbL-0005_RLatLon0.09_PT045H.grib2 2026-05-03 08:57 369K
20260503T06Z_MSC_RDPS_SpecificHumidity_IsbL-0010_RLatLon0.09_PT045H.grib2 2026-05-03 08:57 400K
20260503T06Z_MSC_RDPS_SpecificHumidity_IsbL-0020_RLatLon0.09_PT045H.grib2 2026-05-03 08:57 382K
20260503T06Z_MSC_RDPS_SpecificHumidity_IsbL-0030_RLatLon0.09_PT045H.grib2 2026-05-03 08:57 375K
20260503T06Z_MSC_RDPS_SpecificHumidity_IsbL-0050_RLatLon0.09_PT045H.grib2 2026-05-03 08:57 485K
20260503T06Z_MSC_RDPS_SpecificHumidity_IsbL-0100_RLatLon0.09_PT045H.grib2 2026-05-03 08:57 426K
20260503T06Z_MSC_RDPS_SpecificHumidity_IsbL-0150_RLatLon0.09_PT045H.grib2 2026-05-03 08:57 458K
20260503T06Z_MSC_RDPS_SpecificHumidity_IsbL-0175_RLatLon0.09_PT045H.grib2 2026-05-03 08:57 449K
20260503T06Z_MSC_RDPS_SpecificHumidity_IsbL-0200_RLatLon0.09_PT045H.grib2 2026-05-03 08:57 468K
20260503T06Z_MSC_RDPS_SpecificHumidity_IsbL-0225_RLatLon0.09_PT045H.grib2 2026-05-03 08:57 470K
20260503T06Z_MSC_RDPS_SpecificHumidity_IsbL-0250_RLatLon0.09_PT045H.grib2 2026-05-03 08:57 571K
20260503T06Z_MSC_RDPS_SpecificHumidity_IsbL-0275_RLatLon0.09_PT045H.grib2 2026-05-03 08:57 483K
20260503T06Z_MSC_RDPS_SpecificHumidity_IsbL-0300_RLatLon0.09_PT045H.grib2 2026-05-03 08:57 551K
20260503T06Z_MSC_RDPS_SpecificHumidity_IsbL-0350_RLatLon0.09_PT045H.grib2 2026-05-03 08:57 545K
20260503T06Z_MSC_RDPS_SpecificHumidity_IsbL-0400_RLatLon0.09_PT045H.grib2 2026-05-03 08:57 528K
20260503T06Z_MSC_RDPS_SpecificHumidity_IsbL-0450_RLatLon0.09_PT045H.grib2 2026-05-03 08:57 579K
20260503T06Z_MSC_RDPS_SpecificHumidity_IsbL-0500_RLatLon0.09_PT045H.grib2 2026-05-03 08:57 514K
20260503T06Z_MSC_RDPS_SpecificHumidity_IsbL-0550_RLatLon0.09_PT045H.grib2 2026-05-03 08:57 567K
20260503T06Z_MSC_RDPS_SpecificHumidity_IsbL-0600_RLatLon0.09_PT045H.grib2 2026-05-03 08:57 632K
20260503T06Z_MSC_RDPS_SpecificHumidity_IsbL-0650_RLatLon0.09_PT045H.grib2 2026-05-03 08:57 550K
20260503T06Z_MSC_RDPS_SpecificHumidity_IsbL-0700_RLatLon0.09_PT045H.grib2 2026-05-03 08:57 594K
20260503T06Z_MSC_RDPS_SpecificHumidity_IsbL-0750_RLatLon0.09_PT045H.grib2 2026-05-03 08:57 647K
20260503T06Z_MSC_RDPS_SpecificHumidity_IsbL-0800_RLatLon0.09_PT045H.grib2 2026-05-03 08:57 729K
20260503T06Z_MSC_RDPS_SpecificHumidity_IsbL-0850_RLatLon0.09_PT045H.grib2 2026-05-03 08:57 804K
20260503T06Z_MSC_RDPS_SpecificHumidity_IsbL-0875_RLatLon0.09_PT045H.grib2 2026-05-03 08:57 830K
20260503T06Z_MSC_RDPS_SpecificHumidity_IsbL-0900_RLatLon0.09_PT045H.grib2 2026-05-03 08:57 841K
20260503T06Z_MSC_RDPS_SpecificHumidity_IsbL-0925_RLatLon0.09_PT045H.grib2 2026-05-03 08:57 845K
20260503T06Z_MSC_RDPS_SpecificHumidity_IsbL-0950_RLatLon0.09_PT045H.grib2 2026-05-03 08:57 843K
20260503T06Z_MSC_RDPS_SpecificHumidity_IsbL-0970_RLatLon0.09_PT045H.grib2 2026-05-03 08:57 693K
20260503T06Z_MSC_RDPS_SpecificHumidity_IsbL-0985_RLatLon0.09_PT045H.grib2 2026-05-03 08:57 685K
20260503T06Z_MSC_RDPS_SpecificHumidity_IsbL-1000_RLatLon0.09_PT045H.grib2 2026-05-03 08:57 676K
20260503T06Z_MSC_RDPS_SpecificHumidity_IsbL-1015_RLatLon0.09_PT045H.grib2 2026-05-03 08:57 668K
20260503T06Z_MSC_RDPS_SpecificHumidity_Sfc_RLatLon0.09_PT045H.grib2 2026-05-03 08:57 317K
20260503T06Z_MSC_RDPS_StormRelativeHelicity_EtaL-10000_RLatLon0.09_PT045H.grib2 2026-05-03 08:57 1.1M
20260503T06Z_MSC_RDPS_StormSeverityIndex_EtaL-10000_RLatLon0.09_PT045H.grib2 2026-05-03 08:57 1.1M
20260503T06Z_MSC_RDPS_Thickness_IsbL-0850to0700_RLatLon0.09_PT045H.grib2 2026-05-03 08:57 177K
20260503T06Z_MSC_RDPS_Thickness_IsbL-1000to0500_RLatLon0.09_PT045H.grib2 2026-05-03 08:57 199K
20260503T06Z_MSC_RDPS_Thickness_IsbL-1000to0850_RLatLon0.09_PT045H.grib2 2026-05-03 08:57 259K
20260503T06Z_MSC_RDPS_TotalCloudCover_Sfc_RLatLon0.09_PT045H.grib2 2026-05-03 08:57 664K
20260503T06Z_MSC_RDPS_TotalTotalsIndex_Sfc_RLatLon0.09_PT045H.grib2 2026-05-03 08:57 2.5M
20260503T06Z_MSC_RDPS_UVIndex-ClearSky_Sfc_RLatLon0.09_PT045H.grib2 2026-05-03 08:57 100K
20260503T06Z_MSC_RDPS_UVIndex_Sfc_RLatLon0.09_PT045H.grib2 2026-05-03 08:57 198K
20260503T06Z_MSC_RDPS_UpwardLongwaveRadiationFlux_NTAtm_RLatLon0.09_PT045H.grib2 2026-05-03 08:57 492K
20260503T06Z_MSC_RDPS_UpwardShortwaveRadiationFlux_NTAtm_RLatLon0.09_PT045H.grib2 2026-05-03 08:57 192K
20260503T06Z_MSC_RDPS_VerticalVelocity_IsbL-0250_RLatLon0.09_PT045H.grib2 2026-05-03 08:57 559K
20260503T06Z_MSC_RDPS_VerticalVelocity_IsbL-0500_RLatLon0.09_PT045H.grib2 2026-05-03 08:57 550K
20260503T06Z_MSC_RDPS_VerticalVelocity_IsbL-0700_RLatLon0.09_PT045H.grib2 2026-05-03 08:57 600K
20260503T06Z_MSC_RDPS_VerticalVelocity_IsbL-0850_RLatLon0.09_PT045H.grib2 2026-05-03 08:57 701K
20260503T06Z_MSC_RDPS_VerticalWindShear_EtaL-6500_RLatLon0.09_PT045H.grib2 2026-05-03 08:57 1.2M
20260503T06Z_MSC_RDPS_WindChill_Sfc_RLatLon0.09_PT045H.grib2 2026-05-03 08:57 1.1M
20260503T06Z_MSC_RDPS_WindDir_AGL-10m_RLatLon0.09_PT045H.grib2 2026-05-03 08:57 946K
20260503T06Z_MSC_RDPS_WindDir_AGL-120m_RLatLon0.09_PT045H.grib2 2026-05-03 08:57 586K
20260503T06Z_MSC_RDPS_WindDir_AGL-40m_RLatLon0.09_PT045H.grib2 2026-05-03 08:57 615K
20260503T06Z_MSC_RDPS_WindDir_AGL-80m_RLatLon0.09_PT045H.grib2 2026-05-03 08:57 597K
20260503T06Z_MSC_RDPS_WindDir_IsbL-0001_RLatLon0.09_PT045H.grib2 2026-05-03 08:57 300K
20260503T06Z_MSC_RDPS_WindDir_IsbL-0005_RLatLon0.09_PT045H.grib2 2026-05-03 08:57 380K
20260503T06Z_MSC_RDPS_WindDir_IsbL-0010_RLatLon0.09_PT045H.grib2 2026-05-03 08:57 391K
20260503T06Z_MSC_RDPS_WindDir_IsbL-0020_RLatLon0.09_PT045H.grib2 2026-05-03 08:57 425K
20260503T06Z_MSC_RDPS_WindDir_IsbL-0030_RLatLon0.09_PT045H.grib2 2026-05-03 08:57 423K
20260503T06Z_MSC_RDPS_WindDir_IsbL-0050_RLatLon0.09_PT045H.grib2 2026-05-03 08:57 424K
20260503T06Z_MSC_RDPS_WindDir_IsbL-0100_RLatLon0.09_PT045H.grib2 2026-05-03 08:57 417K
20260503T06Z_MSC_RDPS_WindDir_IsbL-0150_RLatLon0.09_PT045H.grib2 2026-05-03 08:57 409K
20260503T06Z_MSC_RDPS_WindDir_IsbL-0175_RLatLon0.09_PT045H.grib2 2026-05-03 08:57 435K
20260503T06Z_MSC_RDPS_WindDir_IsbL-0200_RLatLon0.09_PT045H.grib2 2026-05-03 08:57 445K
20260503T06Z_MSC_RDPS_WindDir_IsbL-0225_RLatLon0.09_PT045H.grib2 2026-05-03 08:57 451K
20260503T06Z_MSC_RDPS_WindDir_IsbL-0250_RLatLon0.09_PT045H.grib2 2026-05-03 08:57 451K
20260503T06Z_MSC_RDPS_WindDir_IsbL-0275_RLatLon0.09_PT045H.grib2 2026-05-03 08:57 473K
20260503T06Z_MSC_RDPS_WindDir_IsbL-0300_RLatLon0.09_PT045H.grib2 2026-05-03 08:57 472K
20260503T06Z_MSC_RDPS_WindDir_IsbL-0350_RLatLon0.09_PT045H.grib2 2026-05-03 08:57 494K
20260503T06Z_MSC_RDPS_WindDir_IsbL-0400_RLatLon0.09_PT045H.grib2 2026-05-03 08:57 514K
20260503T06Z_MSC_RDPS_WindDir_IsbL-0450_RLatLon0.09_PT045H.grib2 2026-05-03 08:57 531K
20260503T06Z_MSC_RDPS_WindDir_IsbL-0500_RLatLon0.09_PT045H.grib2 2026-05-03 08:57 539K
20260503T06Z_MSC_RDPS_WindDir_IsbL-0550_RLatLon0.09_PT045H.grib2 2026-05-03 08:57 551K
20260503T06Z_MSC_RDPS_WindDir_IsbL-0600_RLatLon0.09_PT045H.grib2 2026-05-03 08:57 572K
20260503T06Z_MSC_RDPS_WindDir_IsbL-0650_RLatLon0.09_PT045H.grib2 2026-05-03 08:57 610K
20260503T06Z_MSC_RDPS_WindDir_IsbL-0700_RLatLon0.09_PT045H.grib2 2026-05-03 08:57 652K
20260503T06Z_MSC_RDPS_WindDir_IsbL-0750_RLatLon0.09_PT045H.grib2 2026-05-03 08:57 703K
20260503T06Z_MSC_RDPS_WindDir_IsbL-0800_RLatLon0.09_PT045H.grib2 2026-05-03 08:57 769K
20260503T06Z_MSC_RDPS_WindDir_IsbL-0850_RLatLon0.09_PT045H.grib2 2026-05-03 08:57 853K
20260503T06Z_MSC_RDPS_WindDir_IsbL-0875_RLatLon0.09_PT045H.grib2 2026-05-03 08:57 884K
20260503T06Z_MSC_RDPS_WindDir_IsbL-0900_RLatLon0.09_PT045H.grib2 2026-05-03 08:57 899K
20260503T06Z_MSC_RDPS_WindDir_IsbL-0925_RLatLon0.09_PT045H.grib2 2026-05-03 08:57 902K
20260503T06Z_MSC_RDPS_WindDir_IsbL-0950_RLatLon0.09_PT045H.grib2 2026-05-03 08:57 895K
20260503T06Z_MSC_RDPS_WindDir_IsbL-0970_RLatLon0.09_PT045H.grib2 2026-05-03 08:57 898K
20260503T06Z_MSC_RDPS_WindDir_IsbL-0985_RLatLon0.09_PT045H.grib2 2026-05-03 08:57 906K
20260503T06Z_MSC_RDPS_WindDir_IsbL-1000_RLatLon0.09_PT045H.grib2 2026-05-03 08:57 921K
20260503T06Z_MSC_RDPS_WindDir_IsbL-1015_RLatLon0.09_PT045H.grib2 2026-05-03 08:57 936K
20260503T06Z_MSC_RDPS_WindGust-Max_AGL-10m_RLatLon0.09_PT045H.grib2 2026-05-03 08:57 963K
20260503T06Z_MSC_RDPS_WindGust-Min_AGL-10m_RLatLon0.09_PT045H.grib2 2026-05-03 08:57 1.0M
20260503T06Z_MSC_RDPS_WindGust_AGL-10m_RLatLon0.09_PT045H.grib2 2026-05-03 08:57 1.0M
20260503T06Z_MSC_RDPS_WindSpeed_AGL-10m_RLatLon0.09_PT045H.grib2 2026-05-03 08:57 842K
20260503T06Z_MSC_RDPS_WindSpeed_AGL-120m_RLatLon0.09_PT045H.grib2 2026-05-03 08:57 537K
20260503T06Z_MSC_RDPS_WindSpeed_AGL-40m_RLatLon0.09_PT045H.grib2 2026-05-03 08:57 673K
20260503T06Z_MSC_RDPS_WindSpeed_AGL-80m_RLatLon0.09_PT045H.grib2 2026-05-03 08:57 539K
20260503T06Z_MSC_RDPS_WindSpeed_IsbL-0001_RLatLon0.09_PT045H.grib2 2026-05-03 08:57 258K
20260503T06Z_MSC_RDPS_WindSpeed_IsbL-0005_RLatLon0.09_PT045H.grib2 2026-05-03 08:57 387K
20260503T06Z_MSC_RDPS_WindSpeed_IsbL-0010_RLatLon0.09_PT045H.grib2 2026-05-03 08:57 365K
20260503T06Z_MSC_RDPS_WindSpeed_IsbL-0020_RLatLon0.09_PT045H.grib2 2026-05-03 08:57 420K
20260503T06Z_MSC_RDPS_WindSpeed_IsbL-0030_RLatLon0.09_PT045H.grib2 2026-05-03 08:57 322K
20260503T06Z_MSC_RDPS_WindSpeed_IsbL-0050_RLatLon0.09_PT045H.grib2 2026-05-03 08:57 355K
20260503T06Z_MSC_RDPS_WindSpeed_IsbL-0100_RLatLon0.09_PT045H.grib2 2026-05-03 08:57 484K
20260503T06Z_MSC_RDPS_WindSpeed_IsbL-0150_RLatLon0.09_PT045H.grib2 2026-05-03 08:57 385K
20260503T06Z_MSC_RDPS_WindSpeed_IsbL-0175_RLatLon0.09_PT045H.grib2 2026-05-03 08:57 411K
20260503T06Z_MSC_RDPS_WindSpeed_IsbL-0200_RLatLon0.09_PT045H.grib2 2026-05-03 08:57 445K
20260503T06Z_MSC_RDPS_WindSpeed_IsbL-0225_RLatLon0.09_PT045H.grib2 2026-05-03 08:57 451K
20260503T06Z_MSC_RDPS_WindSpeed_IsbL-0250_RLatLon0.09_PT045H.grib2 2026-05-03 08:57 454K
20260503T06Z_MSC_RDPS_WindSpeed_IsbL-0275_RLatLon0.09_PT045H.grib2 2026-05-03 08:57 469K
20260503T06Z_MSC_RDPS_WindSpeed_IsbL-0300_RLatLon0.09_PT045H.grib2 2026-05-03 08:57 468K
20260503T06Z_MSC_RDPS_WindSpeed_IsbL-0350_RLatLon0.09_PT045H.grib2 2026-05-03 08:57 477K
20260503T06Z_MSC_RDPS_WindSpeed_IsbL-0400_RLatLon0.09_PT045H.grib2 2026-05-03 08:57 480K
20260503T06Z_MSC_RDPS_WindSpeed_IsbL-0450_RLatLon0.09_PT045H.grib2 2026-05-03 08:57 466K
20260503T06Z_MSC_RDPS_WindSpeed_IsbL-0500_RLatLon0.09_PT045H.grib2 2026-05-03 08:57 468K
20260503T06Z_MSC_RDPS_WindSpeed_IsbL-0550_RLatLon0.09_PT045H.grib2 2026-05-03 08:57 468K
20260503T06Z_MSC_RDPS_WindSpeed_IsbL-0600_RLatLon0.09_PT045H.grib2 2026-05-03 08:57 595K
20260503T06Z_MSC_RDPS_WindSpeed_IsbL-0650_RLatLon0.09_PT045H.grib2 2026-05-03 08:57 615K
20260503T06Z_MSC_RDPS_WindSpeed_IsbL-0700_RLatLon0.09_PT045H.grib2 2026-05-03 08:57 633K
20260503T06Z_MSC_RDPS_WindSpeed_IsbL-0750_RLatLon0.09_PT045H.grib2 2026-05-03 08:57 658K
20260503T06Z_MSC_RDPS_WindSpeed_IsbL-0800_RLatLon0.09_PT045H.grib2 2026-05-03 08:57 707K
20260503T06Z_MSC_RDPS_WindSpeed_IsbL-0850_RLatLon0.09_PT045H.grib2 2026-05-03 08:57 820K
20260503T06Z_MSC_RDPS_WindSpeed_IsbL-0875_RLatLon0.09_PT045H.grib2 2026-05-03 08:57 845K
20260503T06Z_MSC_RDPS_WindSpeed_IsbL-0900_RLatLon0.09_PT045H.grib2 2026-05-03 08:57 861K
20260503T06Z_MSC_RDPS_WindSpeed_IsbL-0925_RLatLon0.09_PT045H.grib2 2026-05-03 08:57 874K
20260503T06Z_MSC_RDPS_WindSpeed_IsbL-0950_RLatLon0.09_PT045H.grib2 2026-05-03 08:57 871K
20260503T06Z_MSC_RDPS_WindSpeed_IsbL-0970_RLatLon0.09_PT045H.grib2 2026-05-03 08:57 868K
20260503T06Z_MSC_RDPS_WindSpeed_IsbL-0985_RLatLon0.09_PT045H.grib2 2026-05-03 08:57 860K
20260503T06Z_MSC_RDPS_WindSpeed_IsbL-1000_RLatLon0.09_PT045H.grib2 2026-05-03 08:57 852K
20260503T06Z_MSC_RDPS_WindSpeed_IsbL-1015_RLatLon0.09_PT045H.grib2 2026-05-03 08:57 843K
20260503T06Z_MSC_RDPS_WindU_AGL-10m_RLatLon0.09_PT045H.grib2 2026-05-03 08:57 430K
20260503T06Z_MSC_RDPS_WindU_AGL-120m_RLatLon0.09_PT045H.grib2 2026-05-03 08:57 533K
20260503T06Z_MSC_RDPS_WindU_AGL-40m_RLatLon0.09_PT045H.grib2 2026-05-03 08:57 536K
20260503T06Z_MSC_RDPS_WindU_AGL-80m_RLatLon0.09_PT045H.grib2 2026-05-03 08:57 535K
20260503T06Z_MSC_RDPS_WindU_IsbL-0001_RLatLon0.09_PT045H.grib2 2026-05-03 08:57 247K
20260503T06Z_MSC_RDPS_WindU_IsbL-0005_RLatLon0.09_PT045H.grib2 2026-05-03 08:57 287K
20260503T06Z_MSC_RDPS_WindU_IsbL-0010_RLatLon0.09_PT045H.grib2 2026-05-03 08:57 297K
20260503T06Z_MSC_RDPS_WindU_IsbL-0020_RLatLon0.09_PT045H.grib2 2026-05-03 08:57 314K
20260503T06Z_MSC_RDPS_WindU_IsbL-0030_RLatLon0.09_PT045H.grib2 2026-05-03 08:57 353K
20260503T06Z_MSC_RDPS_WindU_IsbL-0050_RLatLon0.09_PT045H.grib2 2026-05-03 08:57 384K
20260503T06Z_MSC_RDPS_WindU_IsbL-0100_RLatLon0.09_PT045H.grib2 2026-05-03 08:57 436K
20260503T06Z_MSC_RDPS_WindU_IsbL-0150_RLatLon0.09_PT045H.grib2 2026-05-03 08:57 401K
20260503T06Z_MSC_RDPS_WindU_IsbL-0175_RLatLon0.09_PT045H.grib2 2026-05-03 08:57 425K
20260503T06Z_MSC_RDPS_WindU_IsbL-0200_RLatLon0.09_PT045H.grib2 2026-05-03 08:57 340K
20260503T06Z_MSC_RDPS_WindU_IsbL-0225_RLatLon0.09_PT045H.grib2 2026-05-03 08:57 344K
20260503T06Z_MSC_RDPS_WindU_IsbL-0250_RLatLon0.09_PT045H.grib2 2026-05-03 08:57 344K
20260503T06Z_MSC_RDPS_WindU_IsbL-0275_RLatLon0.09_PT045H.grib2 2026-05-03 08:57 358K
20260503T06Z_MSC_RDPS_WindU_IsbL-0300_RLatLon0.09_PT045H.grib2 2026-05-03 08:57 355K
20260503T06Z_MSC_RDPS_WindU_IsbL-0350_RLatLon0.09_PT045H.grib2 2026-05-03 08:57 363K
20260503T06Z_MSC_RDPS_WindU_IsbL-0400_RLatLon0.09_PT045H.grib2 2026-05-03 08:57 468K
20260503T06Z_MSC_RDPS_WindU_IsbL-0450_RLatLon0.09_PT045H.grib2 2026-05-03 08:57 471K
20260503T06Z_MSC_RDPS_WindU_IsbL-0500_RLatLon0.09_PT045H.grib2 2026-05-03 08:57 474K
20260503T06Z_MSC_RDPS_WindU_IsbL-0550_RLatLon0.09_PT045H.grib2 2026-05-03 08:57 475K
20260503T06Z_MSC_RDPS_WindU_IsbL-0600_RLatLon0.09_PT045H.grib2 2026-05-03 08:57 484K
20260503T06Z_MSC_RDPS_WindU_IsbL-0650_RLatLon0.09_PT045H.grib2 2026-05-03 08:57 501K
20260503T06Z_MSC_RDPS_WindU_IsbL-0700_RLatLon0.09_PT045H.grib2 2026-05-03 08:57 502K
20260503T06Z_MSC_RDPS_WindU_IsbL-0750_RLatLon0.09_PT045H.grib2 2026-05-03 08:57 540K
20260503T06Z_MSC_RDPS_WindU_IsbL-0800_RLatLon0.09_PT045H.grib2 2026-05-03 08:57 580K
20260503T06Z_MSC_RDPS_WindU_IsbL-0850_RLatLon0.09_PT045H.grib2 2026-05-03 08:57 636K
20260503T06Z_MSC_RDPS_WindU_IsbL-0875_RLatLon0.09_PT045H.grib2 2026-05-03 08:57 656K
20260503T06Z_MSC_RDPS_WindU_IsbL-0900_RLatLon0.09_PT045H.grib2 2026-05-03 08:57 659K
20260503T06Z_MSC_RDPS_WindU_IsbL-0925_RLatLon0.09_PT045H.grib2 2026-05-03 08:57 666K
20260503T06Z_MSC_RDPS_WindU_IsbL-0950_RLatLon0.09_PT045H.grib2 2026-05-03 08:57 662K
20260503T06Z_MSC_RDPS_WindU_IsbL-0970_RLatLon0.09_PT045H.grib2 2026-05-03 08:57 656K
20260503T06Z_MSC_RDPS_WindU_IsbL-0985_RLatLon0.09_PT045H.grib2 2026-05-03 08:57 789K
20260503T06Z_MSC_RDPS_WindU_IsbL-1000_RLatLon0.09_PT045H.grib2 2026-05-03 08:57 783K
20260503T06Z_MSC_RDPS_WindU_IsbL-1015_RLatLon0.09_PT045H.grib2 2026-05-03 08:57 823K
20260503T06Z_MSC_RDPS_WindV_AGL-10m_RLatLon0.09_PT045H.grib2 2026-05-03 08:57 432K
20260503T06Z_MSC_RDPS_WindV_AGL-120m_RLatLon0.09_PT045H.grib2 2026-05-03 08:57 533K
20260503T06Z_MSC_RDPS_WindV_AGL-40m_RLatLon0.09_PT045H.grib2 2026-05-03 08:57 538K
20260503T06Z_MSC_RDPS_WindV_AGL-80m_RLatLon0.09_PT045H.grib2 2026-05-03 08:57 536K
20260503T06Z_MSC_RDPS_WindV_IsbL-0001_RLatLon0.09_PT045H.grib2 2026-05-03 08:57 250K
20260503T06Z_MSC_RDPS_WindV_IsbL-0005_RLatLon0.09_PT045H.grib2 2026-05-03 08:57 291K
20260503T06Z_MSC_RDPS_WindV_IsbL-0010_RLatLon0.09_PT045H.grib2 2026-05-03 08:57 391K
20260503T06Z_MSC_RDPS_WindV_IsbL-0020_RLatLon0.09_PT045H.grib2 2026-05-03 08:57 316K
20260503T06Z_MSC_RDPS_WindV_IsbL-0030_RLatLon0.09_PT045H.grib2 2026-05-03 08:57 355K
20260503T06Z_MSC_RDPS_WindV_IsbL-0050_RLatLon0.09_PT045H.grib2 2026-05-03 08:57 348K
20260503T06Z_MSC_RDPS_WindV_IsbL-0100_RLatLon0.09_PT045H.grib2 2026-05-03 08:57 339K
20260503T06Z_MSC_RDPS_WindV_IsbL-0150_RLatLon0.09_PT045H.grib2 2026-05-03 08:57 398K
20260503T06Z_MSC_RDPS_WindV_IsbL-0175_RLatLon0.09_PT045H.grib2 2026-05-03 08:57 327K
20260503T06Z_MSC_RDPS_WindV_IsbL-0200_RLatLon0.09_PT045H.grib2 2026-05-03 08:57 339K
20260503T06Z_MSC_RDPS_WindV_IsbL-0225_RLatLon0.09_PT045H.grib2 2026-05-03 08:57 368K
20260503T06Z_MSC_RDPS_WindV_IsbL-0250_RLatLon0.09_PT045H.grib2 2026-05-03 08:57 369K
20260503T06Z_MSC_RDPS_WindV_IsbL-0275_RLatLon0.09_PT045H.grib2 2026-05-03 08:57 382K
20260503T06Z_MSC_RDPS_WindV_IsbL-0300_RLatLon0.09_PT045H.grib2 2026-05-03 08:57 378K
20260503T06Z_MSC_RDPS_WindV_IsbL-0350_RLatLon0.09_PT045H.grib2 2026-05-03 08:57 385K
20260503T06Z_MSC_RDPS_WindV_IsbL-0400_RLatLon0.09_PT045H.grib2 2026-05-03 08:57 364K
20260503T06Z_MSC_RDPS_WindV_IsbL-0450_RLatLon0.09_PT045H.grib2 2026-05-03 08:57 366K
20260503T06Z_MSC_RDPS_WindV_IsbL-0500_RLatLon0.09_PT045H.grib2 2026-05-03 08:57 368K
20260503T06Z_MSC_RDPS_WindV_IsbL-0550_RLatLon0.09_PT045H.grib2 2026-05-03 08:57 472K
20260503T06Z_MSC_RDPS_WindV_IsbL-0600_RLatLon0.09_PT045H.grib2 2026-05-03 08:57 481K
20260503T06Z_MSC_RDPS_WindV_IsbL-0650_RLatLon0.09_PT045H.grib2 2026-05-03 08:57 498K
20260503T06Z_MSC_RDPS_WindV_IsbL-0700_RLatLon0.09_PT045H.grib2 2026-05-03 08:57 514K
20260503T06Z_MSC_RDPS_WindV_IsbL-0750_RLatLon0.09_PT045H.grib2 2026-05-03 08:57 535K
20260503T06Z_MSC_RDPS_WindV_IsbL-0800_RLatLon0.09_PT045H.grib2 2026-05-03 08:57 576K
20260503T06Z_MSC_RDPS_WindV_IsbL-0850_RLatLon0.09_PT045H.grib2 2026-05-03 08:57 623K
20260503T06Z_MSC_RDPS_WindV_IsbL-0875_RLatLon0.09_PT045H.grib2 2026-05-03 08:57 645K
20260503T06Z_MSC_RDPS_WindV_IsbL-0900_RLatLon0.09_PT045H.grib2 2026-05-03 08:57 658K
20260503T06Z_MSC_RDPS_WindV_IsbL-0925_RLatLon0.09_PT045H.grib2 2026-05-03 08:57 666K
20260503T06Z_MSC_RDPS_WindV_IsbL-0950_RLatLon0.09_PT045H.grib2 2026-05-03 08:57 663K
20260503T06Z_MSC_RDPS_WindV_IsbL-0970_RLatLon0.09_PT045H.grib2 2026-05-03 08:57 659K
20260503T06Z_MSC_RDPS_WindV_IsbL-0985_RLatLon0.09_PT045H.grib2 2026-05-03 08:57 794K
20260503T06Z_MSC_RDPS_WindV_IsbL-1000_RLatLon0.09_PT045H.grib2 2026-05-03 08:57 787K
20260503T06Z_MSC_RDPS_WindV_IsbL-1015_RLatLon0.09_PT045H.grib2 2026-05-03 08:57 827K